Search for airport 
image banner adimage banner ad
image banner ad

FQMA - Maputo / International

Located in Maputo, Mozambique

ICAO - FQMA, IATA - MPM

Data provided by Airmate  

General information

Coordinates: S25°55'15" E32°34'22"
Elevation is 147 feet MSL.
 
View others Airports in Maputo (city)

Operational data

Open for public use
Current time UTC:
Current local time:
Weather
METAR: FQMA 222100Z 00000KT 9999 BKN020 25/20 Q1013 NOSIG
TAF: TAF FQMA 221600Z 2218/2324 10010KT 9999 SCT020 TX31/2313Z TN23/2304Z BECMG 2300/2302 24006KT BECMG 2312/2314 16014KT BKN020 BECMG 2318/2320 05006KT
View NOTAMs / SUP AIP / TFR affecting this airport [VIEW]
Communications frequencies: [VIEW]

Runways:

RWY identifierQFULength (ft)Width (ft)SurfaceLDA (ft)
105577148
285577148
0529°12008148ASP
2312008148

Airport contact information

Address: Maputo Mozambique

Satellite view of FQMA